sat.trackr.live / text

‹ back to catalog

TIANQI-14

NORAD 48864 · 2021-055E

PAYLOAD ACTIVE UNKNOWN

§ Identity

Operator
Country
PRC
Launch date
2021-06-18
Launch site
XICLF
Launch vehicle
Mass (kg)
RCS (m²)

External: N2YO · Heavens-Above · Gunter

§ Orbital elements

Epoch: 2026-05-24T21:43:22.308384Z

Period
95.15 min
Inclination
34.9985°
Eccentricity
0.0004390
Mean motion
15.13328674 rev/d
Perigee alt
523.0 km
Apogee alt
529.1 km
Semi-major
6,904.2 km
B*
2.6769e-4
RAAN
222.7519°
Arg perigee
117.6170°
Mean anomaly
242.4988°
Rev number
27,019

§ Raw data

TIANQI-141 48864U 21055E   26144.90511931  .00004847  00000+0  26769-3 0  99942 48864  34.9985 222.7519 0004390 117.6170 242.4988 15.13328674270193

JSON: /api/v1/satellites/48864 · /tle

For live sub-satellite position, see the globe view (requires WebGL).

§ Visibility from observer

Set your observer location to see the next 7 days of passes ≥ 10°. The values pass through the URL so the page stays shareable.

No JS? Fill the form by hand. The geolocation button needs JavaScript.